TimeCDT,TemperatureF,Dew PointF,Humidity,Sea Level PressureIn,VisibilityMPH,Wind Direction,Wind SpeedMPH,Gust SpeedMPH,PrecipitationIn,Events,Conditions,WindDirDegrees,DateUTC
12:53 AM,70.0,70.0,100,30.20,4.0,Calm,Calm,-,N/A,,Clear,0,2013-08-26 05:53:00
1:09 AM,71.6,71.6,100,30.22,2.5,Calm,Calm,-,N/A,,Clear,0,2013-08-26 06:09:00
1:36 AM,69.8,69.8,100,30.21,0.8,Calm,Calm,-,N/A,,Clear,0,2013-08-26 06:36:00
1:53 AM,69.1,69.1,100,30.19,0.8,Calm,Calm,-,N/A,,Clear,0,2013-08-26 06:53:00
2:10 AM,69.8,69.8,100,30.21,2.0,Calm,Calm,-,N/A,,Clear,0,2013-08-26 07:10:00
2:45 AM,69.8,69.8,100,30.21,3.0,Calm,Calm,-,0.00,,Clear,0,2013-08-26 07:45:00
2:53 AM,69.1,69.1,100,30.20,3.0,Calm,Calm,-,0.00,,Clear,0,2013-08-26 07:53:00
3:44 AM,69.8,69.8,100,30.21,2.0,Calm,Calm,-,N/A,,Partly Cloudy,0,2013-08-26 08:44:00
3:53 AM,69.1,69.1,100,30.19,2.0,Calm,Calm,-,N/A,,Partly Cloudy,0,2013-08-26 08:53:00
4:06 AM,68.0,68.0,100,30.20,3.0,Calm,Calm,-,N/A,,Partly Cloudy,0,2013-08-26 09:06:00
4:15 AM,68.0,68.0,100,30.20,1.8,Calm,Calm,-,N/A,,Clear,0,2013-08-26 09:15:00
4:22 AM,68.0,68.0,100,30.20,0.2,Calm,Calm,-,N/A,Fog,Fog,0,2013-08-26 09:22:00
4:43 AM,68.0,68.0,100,30.20,1.0,Calm,Calm,-,N/A,,Mist,0,2013-08-26 09:43:00
4:46 AM,68.0,68.0,100,30.20,2.0,Calm,Calm,-,N/A,,Scattered Clouds,0,2013-08-26 09:46:00
4:53 AM,68.0,68.0,100,30.19,4.0,Calm,Calm,-,N/A,,Partly Cloudy,0,2013-08-26 09:53:00
5:02 AM,66.2,66.2,100,30.21,1.8,Calm,Calm,-,N/A,,Clear,0,2013-08-26 10:02:00
5:07 AM,66.2,66.2,100,30.20,0.8,Calm,Calm,-,N/A,,Mist,0,2013-08-26 10:07:00
5:21 AM,68.0,68.0,100,30.21,1.2,Calm,Calm,-,N/A,,Partly Cloudy,0,2013-08-26 10:21:00
5:35 AM,66.2,66.2,100,30.21,0.2,Calm,Calm,-,N/A,Fog,Fog,0,2013-08-26 10:35:00
5:42 AM,66.2,66.2,100,30.21,0.5,Calm,Calm,-,N/A,Fog,Fog,0,2013-08-26 10:42:00
5:53 AM,66.9,66.9,100,30.20,0.2,Calm,Calm,-,N/A,Fog,Fog,0,2013-08-26 10:53:00
6:00 AM,66.2,66.2,100,30.22,0.8,Calm,Calm,-,N/A,,Mist,0,2013-08-26 11:00:00
6:03 AM,66.2,66.2,100,30.22,0.8,Calm,Calm,-,N/A,,Mist,0,2013-08-26 11:03:00
6:20 AM,66.2,66.2,100,30.22,1.0,Calm,Calm,-,N/A,,Mist,0,2013-08-26 11:20:00
6:25 AM,66.2,66.2,100,30.22,0.8,Calm,Calm,-,N/A,,Mist,0,2013-08-26 11:25:00
6:46 AM,66.2,66.2,100,30.23,0.2,Calm,Calm,-,N/A,Fog,Fog,0,2013-08-26 11:46:00
6:53 AM,66.9,66.9,100,30.22,0.2,Calm,Calm,-,N/A,Fog,Fog,0,2013-08-26 11:53:00
7:08 AM,68.0,68.0,100,30.23,0.5,Calm,Calm,-,N/A,Fog,Fog,0,2013-08-26 12:08:00
7:17 AM,68.0,68.0,100,30.24,1.2,Calm,Calm,-,N/A,,Mostly Cloudy,0,2013-08-26 12:17:00
7:40 AM,69.8,69.8,100,30.24,2.0,Calm,Calm,-,N/A,,Scattered Clouds,0,2013-08-26 12:40:00
7:53 AM,71.1,71.1,100,30.23,1.8,Calm,Calm,-,N/A,,Partly Cloudy,0,2013-08-26 12:53:00
8:04 AM,71.6,71.6,100,30.24,2.5,Calm,Calm,-,N/A,,Clear,0,2013-08-26 13:04:00
8:13 AM,71.6,71.6,100,30.24,3.0,Calm,Calm,-,N/A,,Clear,0,2013-08-26 13:13:00
8:53 AM,75.0,73.0,94,30.23,5.0,SSW,4.6,-,N/A,,Clear,210,2013-08-26 13:53:00
9:53 AM,78.1,72.0,81,30.24,9.0,SSW,9.2,-,N/A,,Clear,210,2013-08-26 14:53:00
10:53 AM,81.0,73.0,77,30.23,10.0,SSW,10.4,-,N/A,,Clear,210,2013-08-26 15:53:00
11:53 AM,82.0,72.0,71,30.22,10.0,SSW,10.4,-,N/A,,Clear,210,2013-08-26 16:53:00
12:53 PM,84.0,73.0,69,30.20,9.0,SSW,9.2,-,N/A,,Partly Cloudy,210,2013-08-26 17:53:00
1:53 PM,84.0,73.0,69,30.18,9.0,South,9.2,-,N/A,,Clear,190,2013-08-26 18:53:00
2:53 PM,84.9,73.0,67,30.15,10.0,South,6.9,-,N/A,,Clear,190,2013-08-26 19:53:00
3:53 PM,86.0,72.0,63,30.14,10.0,SW,9.2,-,N/A,,Clear,220,2013-08-26 20:53:00
4:53 PM,84.9,71.1,63,30.12,10.0,SSW,8.1,-,N/A,,Clear,200,2013-08-26 21:53:00
5:53 PM,84.0,72.0,67,30.11,10.0,SSW,8.1,-,N/A,,Clear,210,2013-08-26 22:53:00
6:53 PM,82.0,73.9,76,30.11,9.0,South,4.6,-,N/A,,Clear,190,2013-08-26 23:53:00
7:53 PM,78.1,73.0,84,30.11,8.0,SSW,3.5,-,N/A,,Clear,200,2013-08-27 00:53:00
8:53 PM,75.9,73.0,91,30.12,8.0,SSW,3.5,-,N/A,,Clear,210,2013-08-27 01:53:00
9:53 PM,73.9,72.0,93,30.11,8.0,SSW,3.5,-,N/A,,Clear,210,2013-08-27 02:53:00
10:53 PM,73.0,72.0,96,30.11,7.0,SW,4.6,-,N/A,,Clear,220,2013-08-27 03:53:00
11:53 PM,72.0,71.1,97,30.10,6.0,SSW,3.5,-,N/A,,Clear,210,2013-08-27 04:53:00